{"data":{"norad_id":64434,"intl_designator":"2025-129Y","name":"STARLINK-34472","alt_names":[],"object_type":"PAYLOAD","status":"ACTIVE","operator":null,"country":"US","launch_date":"2025-06-17","launch_site_code":"AFWTR","launch_vehicle":null,"mission":null,"orbit_class":"UNKNOWN","rcs_meters":null,"size_class":null,"mass_kg":null,"dimensions":null,"purposes":["comms"],"wikipedia_slug":null,"has_3d_model":false,"image_url":null,"decayed_at":null,"tle_current":{"epoch":"2026-09-20T11:39:32.471136Z","epoch_age_seconds":136370,"freshness":"FRESH","line1":"1 64434U 25129Y   26263.48579249  .00011156  00000+0  39195-3 0  9990","line2":"2 64434  70.0017 301.0042 0003146 259.6343 100.4478 15.29581217 70523","mean_motion":15.29581217,"eccentricity":0.0003146,"inclination_deg":70.0017,"raan_deg":301.0042,"arg_perigee_deg":259.6343,"mean_anomaly_deg":100.4478,"bstar":0.00039195,"rev_number":7052,"period_min":94.143415465333,"perigee_km":474.90662074345,"apogee_km":479.21991275128,"semimajor_km":6855.2002667474,"source":"CELESTRAK","updated_at":"2026-09-21T09:00:35.351048Z"}}}